Skip Page Navigation
NASA JPL Caltech
NASA Logo - Jet Propulsion Laboratory + View the NASA Portal
+ Near-Earth Object (NEO) Program
Search JPL
JPL Home Earth Solar System Stars & Galaxies Technology
JPL Solar System Dynamics
BODIES ORBITS EPHEMERIDES TOOLS PHYSICAL DATA DISCOVERY FAQ SITE MAP
JPL Small-Body Database Browser
Search: [ help ]  
(2006 FX)
Classification: Apollo [NEO, PHA]          SPK-ID: 3328670
Ephemeris | Orbit Diagram | Orbital Elements | Physical Parameters | Close-Approach Data ]

[ hide orbit diagram ]
Orbit Diagram
Note: Make sure you have Java enabled on your browser to see the applet. This applet is provided as a 3D orbit visualization tool. The applet was implemented using 2-body methods, and hence should not be used for determining accurate long-term trajectories (over several years or decades) or planetary encounter circumstances. For accurate long-term ephemerides, please instead use our Horizons system.
Orbit Viewer

Additional Notes: the orbits shown in the applet are color coded. The planets are white lines, and the asteroid/comet is a blue line. The bright white line indicates the portion of the orbit that is above the ecliptic plane, and the darker portion is below the ecliptic plane. Likewise for the asteroid/comet orbit, the light blue indicates the portion above the ecliptic plane, and the dark blue the portion below the ecliptic plane.

Orbit Viewer applet originally written and kindly provided by Osamu Ajiki (AstroArts), and further modified by Ron Baalke (JPL).


Orbital Elements at Epoch 2456400.5 (2013-Apr-18.0) TDB
Reference: JPL 20 (heliocentric ecliptic J2000)
 Element Value Uncertainty (1-sigma)   Units 
e .4384095649572162 1.7835e-07  
a 1.49524860121842 2.1956e-07 AU
q .8397173124553664 2.5995e-07 AU
i 24.6280525495243 3.1933e-05 deg
node 181.2374200619301 1.371e-05 deg
peri 299.4151101839282 4.5079e-05 deg
M 338.5781036779638 0.00030811 deg
tp 2456440.239641634099
(2013-May-27.73964163)
0.00058031 JED
period 667.8340130681689
1.83
0.0001471
4.027e-07
d
yr
n .5390561021983364 1.1873e-07 deg/d
Q 2.150779889981473 3.1582e-07 AU
  Orbit Determination Parameters
   # obs. used (total)      131  
   data-arc span      978 days (2.68 yr)  
   first obs. used      2005-09-24  
   last obs. used      2008-05-29  
   planetary ephem.      DE405  
   SB-pert. ephem.      SB405-CPV-2  
   condition code      1  
   fit RMS      .46874  
   data source      ORB  
   producer      Otto Matic  
   solution date      2011-Sep-14 20:08:53  

Additional Information
 Earth MOID = .00217521 AU 
 T_jup = 4.356 
[ show covariance matrix ]

Ephemeris | Orbit Diagram | Orbital Elements | Physical Parameters | Close-Approach Data ]

Physical Parameter Table
Parameter Symbol Value Units Sigma Reference Notes
absolute magnitude H 19.984 mag .40163 20 autocmod 2.5a

[ show close-approach data ]
Ephemeris | Orbit Diagram | Orbital Elements | Physical Parameters | Close-Approach Data ]
ABOUT SSD CREDITS/AWARDS PRIVACY/COPYRIGHT GLOSSARY LINKS
FirstGov 2013-May-22 23:39 UT
(server date/time)  
NASA Home Page
Site Manager:   Donald K. Yeomans
Webmaster  Alan B. Chamberlin